User: anonymous
Location: Unspecified
(0.0000°N, 0.0000°E)
Time: 22:00:31
(UTC+02:00)
Language:

Ariane H10 - Orbit

View from above orbital plane
View from above orbital plane
View from above satellite
View from above satellite

Ground track
Ground track

The orbit data is extracted from the following two-line orbital elements,

1 19622U 88098B   14233.39193604  .00002622  00000-0  78197-3 0  8515
2 19622 003.8619 137.5516 6465930 311.9289 271.1895 03.35290323269160
Epoch (UTC): 21 August 2014 09:24:23
Eccentricity: 0.6465930
inclination: 3.8619°
perigee height: 286 km
apogee height: 24670 km
right ascension of ascending node: 137.5516°
argument of perigee: 311.9289°
revolutions per day: 3.35290323
mean anomaly at epoch: 271.1895°
orbit number at epoch: 26916

The dashed part of the orbit path shows where the satellite is in the earth's shadow,  

DLR